Tracking 31027 objects as of 19-Jul-2025
HD Live streaming from Space Station
objects crossing your sky now

DELTA 1 DEB

Track DELTA 1 DEB now!
10-day predictions


NORAD ID: 7133
Int'l Code: 1973-086CX
Perigee: 1,479.3 km
Apogee: 1,535.9 km
Inclination: 101.7 °
Period: 116.0 minutes
Semi major axis: 7878 km
RCS: 0.0439 m2 (small)
Launch date: November 6, 1973
Source: United States (US)
Launch site: AIR FORCE WESTERN TEST RANGE (AFWTR)

Note: This is SATELLITE DEBRIS
Your satellite tracking list
CZ-3A R/B
Track 1 satellite(s)




NASA's NSSDC Master Catalog

Two Line Element Set (TLE):
1 07133U 73086CX  25198.11090964 -.00000041  00000-0  14611-4 0  9996
2 07133 101.7080 239.8954 0035963 232.2724 152.3587 12.41450104338761
Source of the keplerian elements: AFSPC